Flag for Germany Weather past 2 weeks in Falkensee, Brandenburg, Germany

Now
82 °F

Sunny.


Feels Like: 82 °F
Forecast: 66 / 83 °F
Wind: 14 mph from Northeast

Location: Berlin-Tegel

Current Time: Jul 23, 2014 at 1:57:45 AM

Latest Report: Jul 22, 2014 at 6:50 PM


Visibility: 10 mi

Pressure: 30.01 "Hg

Humidity: 40%

Dew point: 55 °F

Location of FalkenseeLocation

Historic Weather in Falkensee — Graph

°F

Falkensee temperature yesterday

Maximum temperature yesterday: 86 °F (at 4:20 PM)
Minimum temperature yesterday: 64 °F (at 4:20 AM)
Average temperature yesterday: 75 °F

Past Weeks' High & Low Weather Summary

 TemperatureHumidityPressure
High93 °F (Jul 20, 2:50 PM)100% (Jul 10, 5:20 AM)30.18 "Hg (Jul 10, 5:20 AM)
Low54 °F (Jul 13, 3:50 AM)20% (Jul 19, 3:50 PM)29.56 "Hg (Jul 9, 7:50 AM)
Average72 °F63%29.91 "Hg
* Reported Jul 7 6:20 PM — Jul 22 6:50 PM, Falkensee, Weather by CustomWeather, © 2014

Note: Actual official high and low records may vary slightly from our data, if they occured in-between our weather recording intervals... More about our weather records

Advertising

Falkensee weather history for previous 24 hours

 ConditionsComfort  
Time TempWeatherWind HumidityBarometerVisibility
6:50 PM
Jul 22
82 °FSunny.14 mph40%30.01 "Hg10 mi
6:20 PM84 °FSunny.10 mph31%30.01 "Hg10 mi
5:50 PM86 °FSunny.8 mph29%30.01 "Hg10 mi
5:20 PM82 °FSunny.10 mph32%30.01 "Hg10 mi
4:50 PM84 °FSunny.10 mph31%30.01 "Hg10 mi
4:20 PM86 °FSunny.13 mph27%30.01 "Hg10 mi
3:50 PM84 °FSunny.10 mph31%30.01 "Hg10 mi
3:20 PM84 °FSunny.10 mph29%30.01 "Hg10 mi
2:50 PM84 °FSunny.9 mph29%30.01 "Hg10 mi
2:20 PM84 °FSunny.10 mph29%30.01 "Hg10 mi
1:50 PM82 °FSunny.12 mph30%30.01 "Hg10 mi
1:20 PM82 °FSunny.10 mph32%30.01 "Hg10 mi
12:50 PM82 °FSunny.15 mph35%30.01 "Hg10 mi
12:20 PM82 °FScattered clouds.12 mph32%30.01 "HgN/A
11:50 AM81 °FPassing clouds.13 mph39%30.01 "HgN/A
11:20 AM79 °FPassing clouds.8 mph45%30.01 "HgN/A
10:50 AM79 °FSunny.8 mph48%30.01 "Hg10 mi
10:20 AM77 °FSunny.8 mph51%30.01 "Hg10 mi
9:50 AM75 °FSunny.8 mph57%30.01 "Hg10 mi
9:20 AM73 °FSunny.8 mph61%30.01 "Hg10 mi
8:50 AM72 °FSunny.7 mph65%30.01 "Hg10 mi
8:20 AM70 °FSunny.9 mph69%30.01 "Hg10 mi
7:50 AM68 °FSunny.8 mph73%30.01 "Hg10 mi
7:20 AM66 °FSunny.7 mph78%30.01 "Hg10 mi
6:50 AM64 °FSunny.7 mph83%29.98 "Hg10 mi
6:20 AM64 °FSunny.6 mph83%29.98 "Hg10 mi
5:50 AM64 °FClear.7 mph83%29.98 "Hg10 mi
5:20 AM64 °FClear.6 mph83%29.98 "Hg10 mi
4:50 AM64 °FClear.6 mph83%29.95 "Hg10 mi
4:20 AM64 °FClear.6 mph83%29.95 "Hg10 mi
3:50 AM66 °FClear.5 mph78%29.95 "Hg10 mi
3:20 AM66 °FClear.6 mph78%29.95 "Hg10 mi
2:50 AM66 °FClear.6 mph78%29.95 "Hg10 mi
2:20 AM66 °FClear.8 mph78%29.95 "Hg10 mi
1:50 AM68 °FClear.6 mph69%29.95 "Hg10 mi
1:20 AM68 °FClear.6 mph69%29.95 "Hg10 mi
Weather by CustomWeather, © 2014

See weather overviewHow to use our weather pages